| time (UTC) | temp C | wind direction | speed KPH | gust KPH | rain 1hr cm | rain 24hr cm | rain mn cm | humidity % | barometer mb |
| 20260831053705 | 18 | 26 | 1.6 | 4.8 | 0.00 | 0.00 | 0.00 | 70 | 1023.5 |
| 20260831053204 | 18 | 28 | 1.6 | 11.3 | 0.00 | 0.00 | 0.00 | 70 | 1023.6 |
| 20260831052703 | 18 | 20 | 3.2 | 11.3 | 0.00 | 0.00 | 0.00 | 69 | 1023.7 |
| 20260831052205 | 18 | 25 | 1.6 | 8.0 | 0.00 | 0.00 | 0.00 | 69 | 1023.7 |
| 20260831051702 | 18 | 43 | 1.6 | 8.0 | 0.00 | 0.00 | 0.00 | 69 | 1023.7 |
| 20260831051200 | 18 | 17 | 3.2 | 8.0 | 0.00 | 0.00 | 0.00 | 68 | 1023.8 |
| 20260831050700 | 18 | 12 | 3.2 | 8.0 | 0.00 | 0.00 | 0.00 | 68 | 1023.7 |
| 20260831050153 | 18 | 32 | 3.2 | 8.0 | 0.00 | 0.00 | 0.00 | 68 | 1023.7 |
| 20260831045653 | 18 | 13 | 3.2 | 9.7 | 0.00 | 0.00 | 0.00 | 67 | 1023.8 |
| 20260831045153 | 19 | 44 | 4.8 | 14.5 | 0.00 | 0.00 | 0.00 | 67 | 1023.8 |
| 20260831044653 | 19 | 15 | 4.8 | 14.5 | 0.00 | 0.00 | 0.00 | 66 | 1023.8 |
| 20260831044153 | 19 | 13 | 4.8 | 11.3 | 0.00 | 0.00 | 0.00 | 66 | 1023.9 |
| 20260831043653 | 19 | 341 | 4.8 | 9.7 | 0.00 | 0.00 | 0.00 | 66 | 1023.8 |
| 20260831043147 | 19 | 24 | 4.8 | 9.7 | 0.00 | 0.00 | 0.00 | 65 | 1024.0 |
| 20260831042647 | 19 | 306 | 3.2 | 9.7 | 0.00 | 0.00 | 0.00 | 65 | 1023.9 |
| 20260831042147 | 20 | 32 | 3.2 | 9.7 | 0.00 | 0.00 | 0.00 | 64 | 1023.9 |
| 20260831041647 | 20 | 40 | 3.2 | 9.7 | 0.00 | 0.00 | 0.00 | 64 | 1023.9 |
| 20260831041147 | 20 | 305 | 4.8 | 11.3 | 0.00 | 0.00 | 0.00 | 63 | 1023.9 |
| 20260831040648 | 20 | 355 | 6.4 | 11.3 | 0.00 | 0.00 | 0.00 | 63 | 1023.9 |
| 20260831040141 | 20 | 344 | 4.8 | 12.9 | 0.00 | 0.00 | 0.00 | 63 | 1023.9 |
| 20260831035641 | 20 | 21 | 3.2 | 12.9 | 0.00 | 0.00 | 0.00 | 63 | 1024.0 |
| 20260831035141 | 20 | 5 | 4.8 | 12.9 | 0.00 | 0.00 | 0.00 | 63 | 1023.8 |
| 20260831034641 | 20 | 24 | 3.2 | 12.9 | 0.00 | 0.00 | 0.00 | 62 | 1023.8 |
| 20260831034141 | 20 | 355 | 3.2 | 11.3 | 0.00 | 0.00 | 0.00 | 62 | 1023.8 |
| 20260831033642 | 20 | 320 | 3.2 | 11.3 | 0.00 | 0.00 | 0.00 | 61 | 1023.7 |
| 20260831033137 | 20 | 36 | 3.2 | 12.9 | 0.00 | 0.00 | 0.00 | 61 | 1023.7 |
| 20260831032637 | 21 | 24 | 4.8 | 12.9 | 0.00 | 0.00 | 0.00 | 61 | 1023.6 |
| 20260831032135 | 21 | 85 | 4.8 | 16.1 | 0.00 | 0.00 | 0.00 | 60 | 1023.6 |
| 20260831031635 | 21 | 46 | 4.8 | 16.1 | 0.00 | 0.00 | 0.00 | 60 | 1023.7 |
| 20260831031135 | 21 | 54 | 4.8 | 16.1 | 0.00 | 0.00 | 0.00 | 60 | 1023.7 |
| 20260831030636 | 21 | 97 | 6.4 | 17.7 | 0.00 | 0.00 | 0.00 | 60 | 1023.8 |
| 20260831030133 | 21 | 28 | 4.8 | 17.7 | 0.00 | 0.00 | 0.00 | 60 | 1023.8 |
| 20260831025633 | 21 | 114 | 4.8 | 12.9 | 0.00 | 0.00 | 0.00 | 60 | 1023.7 |
| 20260831025134 | 22 | 42 | 4.8 | 16.1 | 0.00 | 0.00 | 0.00 | 60 | 1023.7 |
| 20260831024631 | 22 | 26 | 4.8 | 16.1 | 0.00 | 0.00 | 0.00 | 59 | 1023.6 |
| 20260831024129 | 22 | 342 | 4.8 | 16.1 | 0.00 | 0.00 | 0.00 | 59 | 1023.8 |
| 20260831023630 | 22 | 26 | 4.8 | 16.1 | 0.00 | 0.00 | 0.00 | 59 | 1023.8 |
| 20260831023124 | 22 | 53 | 4.8 | 16.1 | 0.00 | 0.00 | 0.00 | 58 | 1023.8 |
| 20260831022623 | 22 | 37 | 4.8 | 14.5 | 0.00 | 0.00 | 0.00 | 57 | 1023.7 |
| 20260831022123 | 22 | 19 | 4.8 | 20.9 | 0.00 | 0.00 | 0.00 | 57 | 1023.8 |
| 20260831021623 | 23 | 355 | 4.8 | 20.9 | 0.00 | 0.00 | 0.00 | 57 | 1023.8 |
| 20260831021122 | 23 | 42 | 4.8 | 16.1 | 0.00 | 0.00 | 0.00 | 57 | 1023.8 |
| 20260831020624 | 23 | 33 | 4.8 | 14.5 | 0.00 | 0.00 | 0.00 | 57 | 1023.8 |
| 20260831020119 | 23 | 36 | 6.4 | 14.5 | 0.00 | 0.00 | 0.00 | 56 | 1023.9 |
| 20260831015619 | 23 | 76 | 6.4 | 17.7 | 0.00 | 0.00 | 0.00 | 56 | 1023.8 |
| 20260831015116 | 23 | 26 | 6.4 | 17.7 | 0.00 | 0.00 | 0.00 | 56 | 1023.9 |
| 20260831014617 | 23 | 348 | 4.8 | 16.1 | 0.00 | 0.00 | 0.00 | 56 | 1023.9 |
| 20260831014117 | 23 | 57 | 6.4 | 22.5 | 0.00 | 0.00 | 0.00 | 55 | 1024.0 |
| 20260831013617 | 23 | 77 | 4.8 | 22.5 | 0.00 | 0.00 | 0.00 | 55 | 1024.0 |
| 20260831013112 | 23 | 13 | 6.4 | 17.7 | 0.00 | 0.00 | 0.00 | 55 | 1024.1 |
| 20260831012611 | 23 | 26 | 6.4 | 17.7 | 0.00 | 0.00 | 0.00 | 54 | 1024.0 |
| 20260831012111 | 24 | 0 | 6.4 | 17.7 | 0.00 | 0.00 | 0.00 | 54 | 1024.1 |
| 20260831011611 | 24 | 10 | 6.4 | 16.1 | 0.00 | 0.00 | 0.00 | 54 | 1024.0 |
| 20260831011111 | 24 | 36 | 6.4 | 16.1 | 0.00 | 0.00 | 0.00 | 54 | 1024.1 |
| 20260831010612 | 25 | 17 | 4.8 | 16.1 | 0.00 | 0.00 | 0.00 | 53 | 1024.3 |
| 20260831010108 | 24 | 32 | 4.8 | 14.5 | 0.00 | 0.00 | 0.00 | 53 | 1024.3 |
| 20260831005606 | 24 | 13 | 6.4 | 24.1 | 0.00 | 0.00 | 0.00 | 53 | 1024.3 |
| 20260831005105 | 24 | 51 | 8.0 | 24.1 | 0.00 | 0.00 | 0.00 | 53 | 1024.4 |
| 20260831004605 | 24 | 294 | 8.0 | 19.3 | 0.00 | 0.00 | 0.00 | 52 | 1024.4 |
| 20260831004104 | 24 | 57 | 6.4 | 16.1 | 0.00 | 0.00 | 0.00 | 53 | 1024.6 |
| 20260831003606 | 24 | 60 | 8.0 | 24.1 | 0.00 | 0.00 | 0.00 | 53 | 1024.3 |
| 20260831003103 | 24 | 50 | 8.0 | 24.1 | 0.00 | 0.00 | 0.00 | 53 | 1024.4 |
| 20260831002602 | 25 | 14 | 8.0 | 19.3 | 0.00 | 0.00 | 0.00 | 51 | 1024.5 |
| 20260831002104 | 25 | 338 | 6.4 | 17.7 | 0.00 | 0.00 | 0.00 | 51 | 1024.5 |
| 20260831001603 | 25 | 159 | 6.4 | 20.9 | 0.00 | 0.00 | 0.00 | 51 | 1024.6 |
| 20260831001104 | 25 | 53 | 6.4 | 20.9 | 0.00 | 0.00 | 0.00 | 52 | 1024.6 |
| 20260831000603 | 25 | 15 | 6.4 | 19.3 | 0.00 | 0.00 | 0.00 | 51 | 1024.8 |
| 20260831000104 | 25 | 9 | 6.4 | 19.3 | 0.00 | 0.00 | 0.00 | 51 | 1024.9 |
| 20260830235559 | 25 | 42 | 4.8 | 14.5 | 0.00 | 0.00 | 0.00 | 51 | 1025.0 |
| 20260830235058 | 25 | 51 | 4.8 | 19.3 | 0.00 | 0.00 | 0.00 | 52 | 1024.9 |
| 20260830234556 | 25 | 58 | 8.0 | 19.3 | 0.00 | 0.00 | 0.00 | 51 | 1025.0 |
| 20260830234056 | 25 | 5 | 8.0 | 17.7 | 0.00 | 0.00 | 0.00 | 50 | 1025.1 |
| 20260830233557 | 25 | 26 | 6.4 | 17.7 | 0.00 | 0.00 | 0.00 | 51 | 1025.3 |
| 20260830233057 | 25 | 0 | 6.4 | 17.7 | 0.00 | 0.00 | 0.00 | 50 | 1025.2 |
| 20260830232555 | 25 | 347 | 4.8 | 14.5 | 0.00 | 0.00 | 0.00 | 51 | 1025.5 |
| 20260830232055 | 25 | 355 | 6.4 | 16.1 | 0.00 | 0.00 | 0.00 | 50 | 1025.2 |
| 20260830231554 | 25 | 28 | 6.4 | 17.7 | 0.00 | 0.00 | 0.00 | 50 | 1025.3 |
| 20260830231054 | 25 | 36 | 6.4 | 17.7 | 0.00 | 0.00 | 0.00 | 50 | 1025.4 |
| 20260830230555 | 25 | 326 | 8.0 | 19.3 | 0.00 | 0.00 | 0.00 | 51 | 1025.4 |
| 20260830230055 | 25 | 33 | 8.0 | 19.3 | 0.00 | 0.00 | 0.00 | 50 | 1025.5 |
| 20260830225555 | 25 | 280 | 8.0 | 17.7 | 0.00 | 0.00 | 0.00 | 50 | 1025.5 |
| 20260830225052 | 25 | 324 | 6.4 | 17.7 | 0.00 | 0.00 | 0.00 | 50 | 1025.6 |
| 20260830224546 | 24 | 63 | 4.8 | 17.7 | 0.00 | 0.00 | 0.00 | 50 | 1025.8 |
| 20260830224040 | 24 | 44 | 6.4 | 16.1 | 0.00 | 0.00 | 0.00 | 51 | 1025.9 |
| 20260830223534 | 24 | 5 | 6.4 | 16.1 | 0.00 | 0.00 | 0.00 | 50 | 1026.0 |
| 20260830223028 | 24 | 299 | 6.4 | 19.3 | 0.00 | 0.00 | 0.00 | 51 | 1026.0 |
| 20260830222527 | 24 | 5 | 8.0 | 19.3 | 0.00 | 0.00 | 0.00 | 50 | 1026.2 |
| 20260830222026 | 24 | 277 | 6.4 | 14.5 | 0.00 | 0.00 | 0.00 | 50 | 1026.3 |
| 20260830221526 | 24 | 284 | 4.8 | 16.1 | 0.00 | 0.00 | 0.00 | 50 | 1026.3 |
| 20260830221024 | 24 | 5 | 4.8 | 16.1 | 0.00 | 0.00 | 0.00 | 51 | 1026.4 |
| 20260830220525 | 23 | 46 | 4.8 | 16.1 | 0.00 | 0.00 | 0.00 | 50 | 1026.6 |
| 20260830220026 | 23 | 35 | 4.8 | 16.1 | 0.00 | 0.00 | 0.00 | 50 | 1026.6 |
| 20260830215520 | 23 | 15 | 6.4 | 20.9 | 0.00 | 0.00 | 0.00 | 51 | 1026.7 |
| 20260830215021 | 23 | 34 | 6.4 | 20.9 | 0.00 | 0.00 | 0.00 | 50 | 1026.9 |
| 20260830214520 | 23 | 313 | 6.4 | 19.3 | 0.00 | 0.00 | 0.00 | 52 | 1026.9 |
| 20260830214021 | 23 | 36 | 6.4 | 19.3 | 0.00 | 0.00 | 0.00 | 53 | 1027.0 |
| 20260830213520 | 23 | 323 | 6.4 | 17.7 | 0.00 | 0.00 | 0.00 | 53 | 1027.1 |
| 20260830213022 | 23 | 263 | 6.4 | 16.1 | 0.00 | 0.00 | 0.00 | 52 | 1027.1 |
| 20260830212517 | 23 | 5 | 6.4 | 17.7 | 0.00 | 0.00 | 0.00 | 52 | 1027.2 |
| 20260830212016 | 23 | 16 | 6.4 | 17.7 | 0.00 | 0.00 | 0.00 | 52 | 1027.4 |
| 20260830211517 | 23 | 29 | 6.4 | 20.9 | 0.00 | 0.00 | 0.00 | 51 | 1027.2 |
| 20260830211017 | 23 | 74 | 4.8 | 20.9 | 0.00 | 0.00 | 0.00 | 53 | 1027.3 |
| 20260830210516 | 23 | 295 | 4.8 | 19.3 | 0.00 | 0.00 | 0.00 | 53 | 1027.4 |
| 20260830210017 | 22 | 188 | 6.4 | 19.3 | 0.00 | 0.00 | 0.00 | 53 | 1027.4 |
| 20260830205513 | 22 | 42 | 6.4 | 16.1 | 0.00 | 0.00 | 0.00 | 55 | 1027.5 |
| 20260830205012 | 22 | 9 | 6.4 | 19.3 | 0.00 | 0.00 | 0.00 | 53 | 1027.6 |
| 20260830204512 | 22 | 57 | 8.0 | 20.9 | 0.00 | 0.00 | 0.00 | 55 | 1027.6 |
| 20260830204013 | 22 | 316 | 6.4 | 20.9 | 0.00 | 0.00 | 0.00 | 55 | 1027.6 |
| 20260830203512 | 22 | 26 | 6.4 | 19.3 | 0.00 | 0.00 | 0.00 | 56 | 1027.8 |
| 20260830203014 | 22 | 32 | 8.0 | 19.3 | 0.00 | 0.00 | 0.00 | 56 | 1027.9 |
| 20260830202508 | 21 | 288 | 6.4 | 16.1 | 0.00 | 0.00 | 0.00 | 56 | 1027.9 |
| 20260830202008 | 21 | 263 | 8.0 | 19.3 | 0.00 | 0.00 | 0.00 | 57 | 1027.9 |
| 20260830201509 | 21 | 309 | 8.0 | 19.3 | 0.00 | 0.00 | 0.00 | 58 | 1028.0 |
| 20260830201006 | 21 | 277 | 6.4 | 17.7 | 0.00 | 0.00 | 0.00 | 58 | 1028.0 |
| 20260830200507 | 21 | 72 | 6.4 | 17.7 | 0.00 | 0.00 | 0.00 | 59 | 1028.0 |
| 20260830200006 | 21 | 86 | 8.0 | 19.3 | 0.00 | 0.00 | 0.00 | 59 | 1028.1 |
| 20260830195506 | 21 | 20 | 8.0 | 19.3 | 0.00 | 0.00 | 0.00 | 58 | 1028.2 |
| 20260830195000 | 21 | 331 | 4.8 | 16.1 | 0.00 | 0.00 | 0.00 | 59 | 1028.2 |
| 20260830194500 | 21 | 279 | 4.8 | 16.1 | 0.00 | 0.00 | 0.00 | 60 | 1028.2 |
| 20260830193958 | 21 | 332 | 6.4 | 16.1 | 0.00 | 0.00 | 0.00 | 61 | 1028.3 |
| 20260830193459 | 20 | 49 | 6.4 | 17.7 | 0.00 | 0.00 | 0.00 | 60 | 1028.3 |
| 20260830192958 | 21 | 40 | 8.0 | 20.9 | 0.00 | 0.00 | 0.00 | 61 | 1028.6 |
| 20260830192459 | 21 | 320 | 8.0 | 20.9 | 0.00 | 0.00 | 0.00 | 60 | 1028.5 |
| 20260830191954 | 21 | 346 | 6.4 | 17.7 | 0.00 | 0.00 | 0.00 | 61 | 1028.6 |
| 20260830191452 | 21 | 51 | 6.4 | 17.7 | 0.00 | 0.00 | 0.00 | 61 | 1028.7 |
| 20260830190952 | 20 | 31 | 6.4 | 17.7 | 0.00 | 0.00 | 0.00 | 62 | 1028.7 |
| 20260830190452 | 20 | 82 | 4.8 | 16.1 | 0.00 | 0.00 | 0.00 | 62 | 1028.8 |
| 20260830185952 | 20 | 279 | 3.2 | 17.7 | 0.00 | 0.00 | 0.00 | 63 | 1028.9 |
| 20260830185453 | 20 | 42 | 4.8 | 17.7 | 0.00 | 0.00 | 0.00 | 63 | 1028.9 |
| 20260830184946 | 20 | 60 | 3.2 | 11.3 | 0.00 | 0.00 | 0.00 | 63 | 1028.9 |
| 20260830184446 | 20 | 318 | 4.8 | 12.9 | 0.00 | 0.00 | 0.00 | 62 | 1028.9 |
| 20260830183946 | 20 | 355 | 4.8 | 16.1 | 0.00 | 0.00 | 0.00 | 64 | 1028.9 |
| 20260830183446 | 20 | 35 | 4.8 | 16.1 | 0.00 | 0.00 | 0.00 | 64 | 1028.9 |
| 20260830182946 | 19 | 346 | 4.8 | 14.5 | 0.00 | 0.00 | 0.00 | 66 | 1028.9 |
| 20260830182446 | 19 | 14 | 6.4 | 16.1 | 0.00 | 0.00 | 0.00 | 65 | 1028.9 |
| 20260830181945 | 19 | 5 | 6.4 | 16.1 | 0.00 | 0.00 | 0.00 | 65 | 1029.1 |
| 20260830181442 | 19 | 11 | 6.4 | 14.5 | 0.00 | 0.00 | 0.00 | 65 | 1029.0 |
| 20260830180943 | 19 | 351 | 4.8 | 14.5 | 0.00 | 0.00 | 0.00 | 65 | 1029.0 |
| 20260830180442 | 18 | 342 | 3.2 | 14.5 | 0.00 | 0.00 | 0.00 | 68 | 1029.0 |
| 20260830175940 | 18 | 338 | 3.2 | 9.7 | 0.00 | 0.00 | 0.00 | 70 | 1028.9 |
| 20260830175441 | 18 | 31 | 4.8 | 17.7 | 0.00 | 0.00 | 0.00 | 70 | 1028.9 |
| 20260830174936 | 18 | 298 | 4.8 | 17.7 | 0.00 | 0.00 | 0.00 | 72 | 1029.1 |
| 20260830174434 | 18 | 10 | 4.8 | 14.5 | 0.00 | 0.00 | 0.00 | 72 | 1028.9 |
| 20260830173934 | 17 | 26 | 4.8 | 14.5 | 0.00 | 0.00 | 0.00 | 74 | 1029.0 |
| 20260830173434 | 17 | 5 | 4.8 | 14.5 | 0.00 | 0.00 | 0.00 | 73 | 1029.0 |
| 20260830172934 | 17 | 350 | 6.4 | 14.5 | 0.00 | 0.00 | 0.00 | 74 | 1029.0 |
| 20260830172434 | 17 | 30 | 6.4 | 14.5 | 0.00 | 0.00 | 0.00 | 74 | 1029.0 |
| 20260830171929 | 17 | 19 | 6.4 | 12.9 | 0.00 | 0.00 | 0.00 | 76 | 1029.0 |
| 20260830171428 | 17 | 296 | 4.8 | 12.9 | 0.00 | 0.00 | 0.00 | 77 | 1028.9 |
| 20260830170928 | 16 | 294 | 4.8 | 12.9 | 0.00 | 0.00 | 0.00 | 77 | 1029.1 |
| 20260830170428 | 16 | 319 | 4.8 | 12.9 | 0.00 | 0.00 | 0.00 | 78 | 1029.2 |
| 20260830165928 | 16 | 34 | 4.8 | 14.5 | 0.00 | 0.00 | 0.00 | 78 | 1029.1 |
| 20260830165429 | 16 | 5 | 3.2 | 14.5 | 0.00 | 0.00 | 0.00 | 80 | 1029.2 |
| 20260830164925 | 16 | 329 | 3.2 | 8.0 | 0.00 | 0.00 | 0.00 | 79 | 1029.3 |
| 20260830164424 | 16 | 22 | 3.2 | 9.7 | 0.00 | 0.00 | 0.00 | 80 | 1029.3 |
| 20260830163925 | 15 | 5 | 3.2 | 11.3 | 0.00 | 0.00 | 0.00 | 81 | 1029.4 |
| 20260830163423 | 15 | 271 | 3.2 | 11.3 | 0.00 | 0.00 | 0.00 | 81 | 1029.3 |
| 20260830162922 | 15 | 335 | 3.2 | 8.0 | 0.00 | 0.00 | 0.00 | 82 | 1029.3 |
| 20260830162422 | 15 | 316 | 3.2 | 8.0 | 0.00 | 0.00 | 0.00 | 82 | 1029.3 |
| 20260830161918 | 15 | 340 | 3.2 | 6.4 | 0.00 | 0.00 | 0.00 | 83 | 1029.3 |
| 20260830161418 | 14 | 304 | 1.6 | 4.8 | 0.00 | 0.00 | 0.00 | 84 | 1029.3 |
| 20260830160915 | 14 | 43 | 3.2 | 6.4 | 0.00 | 0.00 | 0.00 | 85 | 1029.4 |
| 20260830160416 | 13 | 51 | 3.2 | 8.0 | 0.00 | 0.00 | 0.00 | 86 | 1029.3 |
| 20260830155916 | 13 | 38 | 3.2 | 8.0 | 0.00 | 0.00 | 0.00 | 86 | 1029.2 |
| 20260830155417 | 13 | 26 | 1.6 | 6.4 | 0.00 | 0.00 | 0.00 | 86 | 1029.3 |
| 20260830154914 | 12 | 10 | 1.6 | 4.8 | 0.00 | 0.00 | 0.00 | 87 | 1029.3 |
| 20260830154411 | 12 | 351 | 0.0 | 3.2 | 0.00 | 0.00 | 0.00 | 87 | 1029.2 |
| 20260830153913 | 12 | 350 | 0.0 | 3.2 | 0.00 | 0.00 | 0.00 | 88 | 1029.4 |
| 20260830153413 | 12 | 350 | 0.0 | 4.8 | 0.00 | 0.00 | 0.00 | 88 | 1029.3 |
| 20260830152909 | 12 | 350 | 1.6 | 4.8 | 0.00 | 0.00 | 0.00 | 89 | 1029.3 |
| 20260830152410 | 11 | 0 | 1.6 | 4.8 | 0.00 | 0.00 | 0.00 | 89 | 1029.4 |
| 20260830151908 | 11 | 355 | 1.6 | 4.8 | 0.00 | 0.00 | 0.00 | 89 | 1029.4 |
| 20260830151408 | 11 | 355 | 1.6 | 4.8 | 0.00 | 0.00 | 0.00 | 90 | 1029.5 |
| 20260830150909 | 11 | 298 | 3.2 | 4.8 | 0.00 | 0.00 | 0.00 | 91 | 1029.5 |
| 20260830150406 | 10 | 327 | 1.6 | 4.8 | 0.00 | 0.00 | 0.00 | 91 | 1029.7 |
| 20260830145904 | 10 | 331 | 1.6 | 4.8 | 0.00 | 0.00 | 0.00 | 91 | 1029.5 |
| 20260830145404 | 10 | 350 | 1.6 | 3.2 | 0.00 | 0.00 | 0.00 | 91 | 1029.7 |
| 20260830144859 | 10 | 350 | 1.6 | 3.2 | 0.00 | 0.00 | 0.00 | 91 | 1029.7 |
| 20260830144357 | 10 | 350 | 0.0 | 3.2 | 0.00 | 0.00 | 0.00 | 91 | 1029.7 |
| 20260830143854 | 10 | 350 | 0.0 | 3.2 | 0.00 | 0.00 | 0.00 | 91 | 1029.6 |
| 20260830143351 | 10 | 350 | 0.0 | 3.2 | 0.00 | 0.00 | 0.00 | 91 | 1029.7 |
| 20260830142853 | 9 | 355 | 0.0 | 3.2 | 0.00 | 0.00 | 0.00 | 92 | 1029.7 |
| 20260830142348 | 9 | 0 | 0.0 | 3.2 | 0.00 | 0.00 | 0.00 | 92 | 1029.6 |
| 20260830141848 | 8 | 0 | 0.0 | 3.2 | 0.00 | 0.00 | 0.00 | 92 | 1029.6 |
| 20260830141346 | 8 | 0 | 0.0 | 3.2 | 0.00 | 0.00 | 0.00 | 92 | 1029.6 |
| 20260830140851 | 8 | 0 | 0.0 | 3.2 | 0.00 | 0.00 | 0.00 | 92 | 1029.6 |
| 20260830140346 | 8 | 0 | 0.0 | 3.2 | 0.00 | 0.00 | 0.00 | 92 | 1029.7 |
| 20260830135846 | 7 | 0 | 0.0 | 1.6 | 0.00 | 0.00 | 0.00 | 91 | 1029.6 |
| 20260830135343 | 7 | 0 | 0.0 | 0.0 | 0.00 | 0.00 | 0.00 | 91 | 1029.6 |
| 20260830134843 | 7 | 0 | 0.0 | 0.0 | 0.00 | 0.00 | 0.00 | 91 | 1029.6 |
| 20260830134343 | 8 | 0 | 0.0 | 0.0 | 0.00 | 0.00 | 0.00 | 91 | 1029.6 |
| 20260830133843 | 8 | 0 | 0.0 | 0.0 | 0.00 | 0.00 | 0.00 | 91 | 1029.5 |
| 20260830133340 | 8 | 0 | 0.0 | 0.0 | 0.00 | 0.00 | 0.00 | 91 | 1029.5 |
| 20260830132840 | 8 | 0 | 0.0 | 0.0 | 0.00 | 0.00 | 0.00 | 91 | 1029.4 |
| 20260830132333 | 8 | 0 | 0.0 | 0.0 | 0.00 | 0.00 | 0.00 | 91 | 1029.5 |
| 20260830131833 | 8 | 0 | 0.0 | 0.0 | 0.00 | 0.00 | 0.00 | 91 | 1029.5 |
| 20260830131329 | 8 | 0 | 0.0 | 0.0 | 0.00 | 0.00 | 0.00 | 91 | 1029.4 |
| 20260830130828 | 8 | 0 | 0.0 | 0.0 | 0.00 | 0.03 | 0.00 | 91 | 1029.4 |
| 20260830130329 | 8 | 0 | 0.0 | 0.0 | 0.00 | 0.03 | 0.00 | 91 | 1029.4 |
| 20260830125824 | 8 | 0 | 0.0 | 0.0 | 0.00 | 0.03 | 0.00 | 90 | 1029.4 |
| 20260830125323 | 8 | 0 | 0.0 | 0.0 | 0.00 | 0.03 | 0.00 | 90 | 1029.3 |
| 20260830124822 | 8 | 0 | 0.0 | 0.0 | 0.00 | 0.03 | 0.00 | 91 | 1029.2 |
| 20260830124322 | 8 | 0 | 0.0 | 0.0 | 0.00 | 0.03 | 0.00 | 91 | 1029.1 |
| 20260830123819 | 8 | 0 | 0.0 | 0.0 | 0.00 | 0.03 | 0.00 | 91 | 1029.1 |
| 20260830123320 | 8 | 0 | 0.0 | 0.0 | 0.00 | 0.03 | 0.00 | 91 | 1029.1 |
| 20260830122816 | 8 | 0 | 0.0 | 0.0 | 0.00 | 0.03 | 0.00 | 91 | 1029.1 |
| 20260830122317 | 8 | 0 | 0.0 | 0.0 | 0.00 | 0.03 | 0.00 | 90 | 1029.0 |
| 20260830121816 | 8 | 0 | 0.0 | 1.6 | 0.00 | 0.03 | 0.00 | 91 | 1029.0 |
| 20260830121316 | 8 | 0 | 0.0 | 1.6 | 0.00 | 0.03 | 0.00 | 91 | 1029.1 |
| 20260830120817 | 8 | 0 | 0.0 | 0.0 | 0.00 | 0.03 | 0.00 | 91 | 1029.0 |
| 20260830120316 | 8 | 0 | 0.0 | 0.0 | 0.00 | 0.03 | 0.00 | 91 | 1028.9 |
| 20260830115813 | 8 | 0 | 0.0 | 1.6 | 0.00 | 0.03 | 0.00 | 91 | 1028.9 |
| 20260830115312 | 8 | 0 | 0.0 | 1.6 | 0.00 | 0.03 | 0.00 | 91 | 1029.0 |
| 20260830114812 | 8 | 0 | 0.0 | 0.0 | 0.00 | 0.03 | 0.00 | 90 | 1028.9 |
| 20260830114312 | 8 | 0 | 0.0 | 0.0 | 0.00 | 0.03 | 0.00 | 90 | 1028.9 |
| 20260830113812 | 8 | 0 | 0.0 | 0.0 | 0.00 | 0.03 | 0.00 | 90 | 1028.8 |
| 20260830113312 | 8 | 0 | 0.0 | 0.0 | 0.00 | 0.03 | 0.00 | 89 | 1028.8 |
| 20260830112808 | 8 | 0 | 0.0 | 0.0 | 0.00 | 0.03 | 0.00 | 89 | 1028.8 |
| 20260830112309 | 8 | 0 | 0.0 | 0.0 | 0.00 | 0.03 | 0.00 | 89 | 1028.9 |
| 20260830111807 | 9 | 0 | 0.0 | 0.0 | 0.00 | 0.03 | 0.00 | 89 | 1028.8 |
| 20260830111307 | 9 | 0 | 0.0 | 0.0 | 0.00 | 0.03 | 0.00 | 89 | 1028.9 |
| 20260830110808 | 9 | 0 | 0.0 | 0.0 | 0.00 | 0.03 | 0.00 | 89 | 1028.9 |
| 20260830110308 | 9 | 0 | 0.0 | 0.0 | 0.00 | 0.03 | 0.00 | 89 | 1028.9 |
| 20260830105805 | 9 | 0 | 0.0 | 0.0 | 0.00 | 0.03 | 0.00 | 89 | 1029.0 |
| 20260830105305 | 10 | 0 | 0.0 | 0.0 | 0.00 | 0.03 | 0.00 | 89 | 1029.0 |
| 20260830104804 | 10 | 0 | 0.0 | 0.0 | 0.00 | 0.03 | 0.00 | 89 | 1029.0 |
| 20260830104304 | 10 | 0 | 0.0 | 0.0 | 0.00 | 0.03 | 0.00 | 89 | 1029.0 |
| 20260830103805 | 10 | 0 | 0.0 | 0.0 | 0.00 | 0.03 | 0.00 | 89 | 1029.0 |
| 20260830103305 | 10 | 0 | 0.0 | 0.0 | 0.00 | 0.03 | 0.00 | 89 | 1029.0 |
| 20260830102759 | 10 | 0 | 0.0 | 0.0 | 0.00 | 0.03 | 0.00 | 88 | 1029.0 |
| 20260830102257 | 10 | 0 | 0.0 | 0.0 | 0.00 | 0.03 | 0.00 | 88 | 1029.0 |
| 20260830101755 | 10 | 0 | 0.0 | 0.0 | 0.00 | 0.03 | 0.00 | 88 | 1029.0 |
| 20260830101256 | 10 | 0 | 0.0 | 0.0 | 0.00 | 0.03 | 0.00 | 88 | 1028.9 |
| 20260830100753 | 10 | 0 | 0.0 | 0.0 | 0.00 | 0.03 | 0.00 | 88 | 1028.9 |
| 20260830100254 | 11 | 0 | 0.0 | 0.0 | 0.00 | 0.03 | 0.00 | 88 | 1029.0 |
| 20260830095747 | 11 | 0 | 0.0 | 0.0 | 0.00 | 0.03 | 0.00 | 88 | 1029.0 |
| 20260830095247 | 11 | 0 | 0.0 | 1.6 | 0.00 | 0.03 | 0.00 | 88 | 1028.9 |
| 20260830094747 | 11 | 0 | 0.0 | 1.6 | 0.00 | 0.03 | 0.00 | 88 | 1029.0 |
| 20260830094247 | 11 | 0 | 0.0 | 1.6 | 0.00 | 0.03 | 0.00 | 88 | 1029.0 |
| 20260830093747 | 11 | 0 | 0.0 | 1.6 | 0.00 | 0.03 | 0.00 | 87 | 1029.0 |
| 20260830093247 | 11 | 0 | 0.0 | 0.0 | 0.00 | 0.03 | 0.00 | 86 | 1029.0 |
| 20260830092746 | 11 | 0 | 0.0 | 0.0 | 0.00 | 0.03 | 0.00 | 86 | 1029.0 |
| 20260830092249 | 12 | 0 | 0.0 | 0.0 | 0.00 | 0.03 | 0.00 | 87 | 1029.1 |
| 20260830091746 | 12 | 0 | 0.0 | 0.0 | 0.00 | 0.03 | 0.00 | 87 | 1029.0 |
| 20260830091245 | 12 | 0 | 0.0 | 0.0 | 0.00 | 0.03 | 0.00 | 87 | 1029.1 |
| 20260830090742 | 12 | 0 | 0.0 | 1.6 | 0.00 | 0.03 | 0.00 | 87 | 1029.0 |
| 20260830090240 | 12 | 0 | 0.0 | 1.6 | 0.00 | 0.03 | 0.00 | 87 | 1029.0 |
| 20260830085740 | 12 | 0 | 0.0 | 1.6 | 0.00 | 0.03 | 0.00 | 87 | 1028.9 |
| 20260830085237 | 12 | 0 | 0.0 | 1.6 | 0.00 | 0.03 | 0.00 | 87 | 1029.0 |
| 20260830084739 | 12 | 0 | 0.0 | 1.6 | 0.00 | 0.03 | 0.00 | 87 | 1029.0 |
| 20260830084237 | 12 | 0 | 0.0 | 1.6 | 0.00 | 0.03 | 0.00 | 87 | 1029.0 |
| 20260830083735 | 12 | 0 | 0.0 | 1.6 | 0.00 | 0.03 | 0.00 | 87 | 1029.0 |
| 20260830083236 | 12 | 0 | 0.0 | 1.6 | 0.00 | 0.03 | 0.00 | 87 | 1029.1 |
| 20260830082735 | 12 | 0 | 0.0 | 1.6 | 0.00 | 0.03 | 0.00 | 86 | 1029.1 |
| 20260830082231 | 12 | 0 | 0.0 | 1.6 | 0.00 | 0.03 | 0.00 | 85 | 1029.0 |
| 20260830081732 | 12 | 0 | 0.0 | 0.0 | 0.00 | 0.03 | 0.00 | 84 | 1029.0 |
| 20260830081232 | 12 | 0 | 0.0 | 0.0 | 0.00 | 0.03 | 0.00 | 84 | 1029.0 |
| 20260830080729 | 13 | 0 | 0.0 | 0.0 | 0.00 | 0.03 | 0.00 | 84 | 1029.0 |
| 20260830080229 | 13 | 0 | 0.0 | 0.0 | 0.00 | 0.03 | 0.00 | 84 | 1028.9 |
| 20260830075728 | 13 | 0 | 0.0 | 0.0 | 0.00 | 0.03 | 0.00 | 84 | 1029.0 |
| 20260830075227 | 13 | 0 | 0.0 | 3.2 | 0.00 | 0.03 | 0.00 | 84 | 1029.0 |
| 20260830074723 | 13 | 0 | 1.6 | 4.8 | 0.00 | 0.03 | 0.00 | 84 | 1029.0 |
| 20260830074224 | 13 | 0 | 1.6 | 4.8 | 0.00 | 0.03 | 0.00 | 84 | 1029.0 |
| 20260830073723 | 13 | 0 | 0.0 | 4.8 | 0.00 | 0.03 | 0.00 | 84 | 1029.0 |
| 20260830073223 | 13 | 315 | 0.0 | 1.6 | 0.00 | 0.03 | 0.00 | 84 | 1028.9 |
| 20260830072722 | 13 | 315 | 0.0 | 3.2 | 0.00 | 0.03 | 0.00 | 84 | 1029.0 |
| 20260830072219 | 13 | 315 | 1.6 | 4.8 | 0.00 | 0.03 | 0.00 | 83 | 1028.9 |
| 20260830071719 | 13 | 315 | 1.6 | 4.8 | 0.00 | 0.03 | 0.00 | 83 | 1028.9 |
| 20260830071219 | 13 | 315 | 0.0 | 4.8 | 0.00 | 0.03 | 0.00 | 83 | 1028.9 |
| 20260830070717 | 13 | 311 | 1.6 | 3.2 | 0.00 | 0.03 | 0.00 | 83 | 1028.8 |
| 20260830070218 | 14 | 311 | 0.0 | 3.2 | 0.00 | 0.03 | 0.00 | 83 | 1028.9 |
| 20260830065715 | 14 | 310 | 1.6 | 4.8 | 0.00 | 0.03 | 0.03 | 82 | 1028.8 |
| 20260830065215 | 14 | 312 | 1.6 | 4.8 | 0.00 | 0.03 | 0.03 | 82 | 1028.9 |
| 20260830064716 | 14 | 311 | 1.6 | 6.4 | 0.00 | 0.03 | 0.03 | 82 | 1028.9 |
| 20260830064213 | 14 | 342 | 3.2 | 6.4 | 0.00 | 0.03 | 0.03 | 82 | 1028.9 |
| 20260830063712 | 14 | 11 | 3.2 | 6.4 | 0.00 | 0.03 | 0.03 | 82 | 1028.9 |
| 20260830063210 | 14 | 316 | 3.2 | 6.4 | 0.00 | 0.03 | 0.03 | 82 | 1028.9 |
| 20260830062707 | 14 | 344 | 3.2 | 6.4 | 0.00 | 0.03 | 0.03 | 81 | 1028.9 |
| 20260830062205 | 15 | 300 | 3.2 | 6.4 | 0.00 | 0.03 | 0.03 | 82 | 1028.8 |
| 20260830061706 | 15 | 315 | 1.6 | 4.8 | 0.00 | 0.03 | 0.03 | 81 | 1028.8 |
| 20260830061206 | 15 | 321 | 1.6 | 4.8 | 0.00 | 0.03 | 0.03 | 81 | 1028.8 |
| 20260830060705 | 15 | 300 | 1.6 | 6.4 | 0.00 | 0.03 | 0.03 | 81 | 1028.8 |
| 20260830060206 | 15 | 329 | 1.6 | 9.7 | 0.00 | 0.03 | 0.03 | 80 | 1028.8 |
| 20260830055701 | 15 | 276 | 3.2 | 9.7 | 0.00 | 0.03 | 0.03 | 80 | 1028.8 |
| 20260830055201 | 15 | 277 | 3.2 | 6.4 | 0.00 | 0.03 | 0.03 | 80 | 1028.8 |
| 20260830054659 | 15 | 301 | 3.2 | 6.4 | 0.00 | 0.03 | 0.03 | 80 | 1028.8 |
| 20260830054200 | 15 | 306 | 1.6 | 6.4 | 0.00 | 0.03 | 0.03 | 79 | 1028.8 |